This is the latest recevied weather packets stored in our database for station/object F5ZYU-10. If no packets are shown the sender has not sent any weather packets the latest 10 day(s).
| Time | Temp. | Humidity | Pressure | Rain* | Wind** | Luminosity | Snow |
|---|---|---|---|---|---|---|---|
| 1777300234 | 18.33° C | 74% | 1027.1 hPa | - | - | - | - |
| 1777299331 | 18.89° C | 75% | 1027.1 hPa | - | - | - | - |
| 1777298433 | 18.89° C | 75% | 1027.3 hPa | - | - | - | - |
| 1777297533 | 18.33° C | 76% | 1027.2 hPa | - | - | - | - |
| 1777296633 | 18.33° C | 75% | 1027.3 hPa | - | - | - | - |
| 1777295733 | 18.33° C | 76% | 1027.4 hPa | - | - | - | - |
| 1777294833 | 17.78° C | 77% | 1027.6 hPa | - | - | - | - |
| 1777293933 | 17.78° C | 77% | 1027.5 hPa | - | - | - | - |
| 1777293033 | 17.78° C | 79% | 1027.6 hPa | - | - | - | - |
| 1777292133 | 17.22° C | 79% | 1027.7 hPa | - | - | - | - |
| 1777291233 | 17.22° C | 79% | 1027.7 hPa | - | - | - | - |
| 1777290332 | 16.67° C | 80% | 1027.9 hPa | - | - | - | - |
| 1777289432 | 16.67° C | 81% | 1028 hPa | - | - | - | - |
| 1777288532 | 16.11° C | 81% | 1028.1 hPa | - | - | - | - |
| 1777287632 | 16.11° C | 81% | 1028.1 hPa | - | - | - | - |
| 1777286732 | 15.56° C | 82% | 1028.2 hPa | - | - | - | - |
| 1777285832 | 15.56° C | 82% | 1028.2 hPa | - | - | - | - |
| 1777284932 | 15° C | 82% | 1028.3 hPa | - | - | - | - |
| 1777284031 | 15° C | 82% | 1028.3 hPa | - | - | - | - |
| 1777283131 | 15° C | 83% | 1028.3 hPa | - | - | - | - |
| 1777282231 | 14.44° C | 82% | 1028.4 hPa | - | - | - | - |
| 1777281331 | 14.44° C | 83% | 1028.3 hPa | - | - | - | - |
| 1777280431 | 13.89° C | 82% | 1028.4 hPa | - | - | - | - |
| 1777279531 | 13.89° C | 82% | 1028.3 hPa | - | - | - | - |
| 1777278631 | 13.33° C | 82% | 1028.2 hPa | - | - | - | - |
* Rain since midnight (hover to see other rain measurements)
** Current wind speed in m/s (hover to see current wind gust speed)